Wind_Speed
43 43 42 40 38 37 36 35 34 34 34 32 31 29 28 27 26 26 26 24 22 19 17 16 15 14 14 15 15 15 15 15 16 18 19 18 17 17 17 17 16 16
43 43 43 42 40 38 38 36 35 35 35 34 32 30 28 27 27 26 26 24 22 20 18 17 16 16 15 16 16 16 16 16 17 18 19 18 17 17 17 17 17 17
45 44 43 42 41 40 39 38 37 36 36 35 34 32 30 29 28 28 27 25 24 22 20 19 18 17 17 17 18 18 17 17 17 19 19 17 17 18 18 18 18 18
46 45 44 42 40 40 40 40 39 38 37 36 35 34 32 31 30 29 28 27 25 24 23 22 20 19 19 19 20 19 19 19 19 20 19 18 18 19 19 19 19 19
46 45 44 42 40 40 40 41 42 40 39 38 36 35 34 33 31 31 30 29 27 27 26 24 23 22 21 21 21 21 20 20 21 21 21 20 19 20 20 21 21 21
46 46 45 43 41 41 41 42 42 42 41 40 38 37 36 34 33 32 31 30 29 28 28 27 25 24 24 23 23 22 22 22 22 23 23 21 21 21 21 22 22 22
48 46 45 44 42 42 42 42 43 43 43 41 40 39 38 36 35 33 32 31 30 30 30 29 27 26 26 25 24 24 24 23 24 24 24 23 22 21 21 21 22 23
48 46 45 44 43 42 42 42 43 44 43 43 42 41 40 39 37 35 34 33 32 32 32 30 29 27 27 27 26 26 26 25 25 25 26 25 23 23 22 22 21 22
49 47 46 45 44 43 42 42 43 43 44 44 43 41 41 40 39 37 36 35 34 34 33 32 31 30 29 29 28 27 27 27 26 26 26 26 25 24 23 22 22 23
50 49 47 46 45 43 42 41 42 43 43 44 43 42 41 41 40 39 38 37 36 35 34 34 33 32 31 31 29 28 28 28 28 27 27 27 26 25 25 24 24 24
52 50 49 48 45 43 41 40 41 42 42 43 43 43 42 41 41 41 40 39 38 37 36 35 35 34 33 32 31 30 29 28 29 28 28 28 27 26 26 25 25 24
53 52 50 48 46 43 41 40 40 41 41 42 42 42 42 42 42 42 41 41 40 39 38 37 36 35 35 34 32 31 30 30 29 29 29 29 29 28 27 26 25 25
54 53 51 49 46 43 41 40 39 40 41 41 41 42 42 42 42 43 42 42 41 40 39 39 37 37 37 36 34 33 32 31 31 30 29 29 29 29 28 27 26 25
54 52 50 48 45 43 41 40 39 39 40 40 41 41 42 42 42 43 43 42 42 41 41 40 39 39 38 38 37 36 34 33 32 31 30 30 29 29 29 29 28 26
53 52 51 49 46 44 43 42 41 40 39 40 40 41 41 41 42 42 43 43 43 42 41 41 41 41 41 39 38 37 36 35 34 32 31 31 29 28 29 30 29 28
53 52 51 49 48 47 45 43 42 40 40 40 40 41 40 41 41 42 43 43 42 42 42 42 43 42 42 41 39 37 36 36 35 33 32 32 31 29 28 29 29 28
53 52 51 50 50 48 46 45 43 42 41 41 41 41 40 40 41 42 43 43 42 42 42 43 43 43 43 41 39 38 36 36 35 34 33 33 33 31 29 29 29 28
52 52 51 51 50 50 48 46 44 43 42 42 42 42 42 41 42 42 43 42 42 43 43 43 43 43 43 42 40 38 36 35 36 35 33 34 35 33 31 30 30 28
52 51 51 50 50 50 49 47 46 45 44 44 43 43 43 43 43 43 43 43 44 44 44 44 44 44 43 42 41 39 36 36 36 34 33 35 36 35 33 31 31 30
52 52 51 50 50 50 50 49 48 46 45 45 44 44 45 45 44 44 43 44 44 45 45 45 45 45 44 43 43 41 38 35 33 33 34 35 36 37 36 33 32 31
53 52 51 50 50 51 50 50 49 48 47 46 45 45 45 45 46 45 44 44 44 45 46 47 47 46 45 45 44 43 41 36 31 32 35 35 36 39 38 34 33 32
53 52 52 51 51 51 51 51 50 49 49 48 47 46 45 46 46 46 45 45 45 46 47 47 47 46 45 45 44 43 42 38 35 33 33 34 36 37 36 34 33 31
53 52 52 51 51 52 52 52 51 50 49 49 48 48 47 46 46 46 46 45 45 46 47 46 46 45 44 43 44 43 40 38 38 37 35 33 33 32 30 31 32 32
53 53 52 51 51 52 53 52 51 50 49 49 49 49 47 46 45 45 45 46 46 47 46 45 45 43 42 42 43 42 39 35 36 36 33 30 31 28 24 24 27 30
53 53 52 52 52 53 53 52 51 50 49 48 48 48 46 45 45 45 45 46 47 46 45 44 44 42 41 41 41 41 39 34 33 34 30 24 26 28 23 20 23 27
52 52 53 53 53 53 53 53 51 49 48 48 48 47 46 45 45 45 46 46 46 45 43 43 43 41 40 40 40 40 39 34 30 31 27 19 20 24 22 20 23 26
Wind_Direction
232 234 235 235 234 233 232 232 230 230 230 230 230 231 231 233 234 235 236 236 233 233 235 236 237 239 239 240 241 238 235 236 237 236 234 233 235 238 241 244 244 246
231 233 235 236 235 234 233 232 231 231 231 231 232 233 234 235 236 238 238 236 232 232 233 233 235 238 240 242 243 240 236 234 235 234 231 231 234 236 239 242 244 246
231 232 234 236 236 234 232 232 232 232 232 233 233 234 235 236 238 240 241 239 235 234 235 235 236 238 239 242 243 242 239 236 234 233 231 230 233 236 237 238 242 244
231 232 234 236 237 235 233 232 232 232 233 233 233 235 236 237 239 241 242 242 239 238 238 238 238 238 238 240 242 242 241 239 237 233 231 230 232 235 235 235 238 241
232 233 234 235 236 236 234 233 232 233 233 233 233 234 236 237 238 240 242 243 242 240 240 240 240 239 239 240 241 241 242 242 240 235 230 228 229 232 232 234 236 239
232 233 234 235 235 235 235 233 233 233 234 234 234 234 236 237 238 239 241 242 242 242 241 241 240 239 239 241 241 241 242 242 242 240 235 229 227 229 230 232 235 237
231 232 233 235 235 235 235 234 233 234 234 235 236 236 236 237 238 238 240 241 241 242 242 242 242 239 239 241 241 242 242 243 243 243 242 236 231 231 231 233 235 237
231 233 233 234 235 235 236 234 233 234 235 236 236 237 237 238 239 239 239 241 241 242 243 243 243 240 239 241 242 242 243 243 243 243 245 243 238 236 235 235 237 239
232 232 233 233 234 235 235 234 233 233 234 236 236 237 237 238 240 240 240 241 241 242 243 243 244 241 239 240 242 243 243 244 244 244 246 246 244 241 239 238 239 240
231 232 232 233 233 234 235 234 233 233 234 235 237 237 238 239 239 241 241 242 243 243 243 243 244 242 240 240 242 243 244 245 246 246 246 247 247 246 243 240 239 240
231 231 232 233 233 234 234 234 233 233 233 235 236 238 239 239 240 240 241 242 243 244 244 244 244 244 242 242 242 244 244 245 247 247 247 248 248 248 246 243 240 240
230 231 232 233 233 234 234 234 234 234 234 234 235 237 239 240 240 240 241 243 244 245 246 246 246 246 244 243 243 244 245 246 248 249 249 248 247 247 248 247 244 241
231 232 232 233 234 235 234 234 234 234 235 234 235 236 238 240 240 241 242 244 245 247 248 248 248 248 247 246 245 244 245 246 248 250 251 250 247 247 248 250 249 244
231 232 233 234 235 236 235 235 234 234 235 235 235 236 238 239 240 242 243 245 247 248 249 249 249 249 248 247 246 245 245 246 248 250 252 253 250 247 247 249 250 248
231 232 233 234 235 235 235 234 234 234 234 235 235 236 237 239 240 242 243 245 247 248 249 250 249 249 249 248 247 246 246 247 248 250 253 256 254 250 248 248 248 249
229 231 232 233 234 235 235 234 234 234 234 234 235 235 236 238 240 241 243 245 247 248 249 249 250 250 249 249 248 247 248 249 251 252 254 257 256 253 251 248 247 249
229 230 231 233 234 234 234 234 234 234 233 234 234 235 236 237 239 241 242 244 246 248 249 250 251 251 251 251 249 248 249 252 253 253 255 258 258 256 253 249 246 248
229 229 231 233 234 234 234 234 234 234 234 234 234 234 235 235 238 240 242 244 246 247 250 251 252 253 253 253 251 249 249 252 253 254 255 257 257 256 255 251 248 247
229 229 231 233 234 233 233 233 233 234 234 233 234 234 234 235 237 239 241 243 245 247 250 251 253 254 255 255 253 250 248 251 253 254 255 257 258 257 256 254 251 248
228 229 232 234 234 233 232 232 233 234 233 233 234 234 234 235 236 238 240 242 245 247 250 252 253 255 256 257 255 250 247 250 253 255 256 259 260 258 256 254 252 249
228 230 232 233 232 231 231 232 233 234 233 233 233 233 234 235 236 238 240 241 244 247 249 251 253 255 257 258 255 250 248 248 249 253 256 258 258 257 256 257 253 248
229 230 231 231 231 230 231 232 233 233 233 233 233 233 234 236 237 238 240 242 244 246 247 250 253 255 258 258 255 252 249 246 243 243 246 251 254 255 256 257 252 246
230 230 230 230 230 230 232 233 233 233 233 233 232 233 233 235 236 238 240 242 244 245 247 249 253 256 259 259 257 252 247 248 249 242 236 240 248 253 256 254 248 244
231 230 230 231 232 233 234 234 233 234 234 233 233 233 234 235 236 238 240 242 243 245 247 250 253 257 260 260 257 251 247 253 258 249 240 241 245 246 250 250 246 244
231 231 231 232 234 236 236 235 234 234 234 234 234 235 236 236 237 238 240 241 243 245 248 250 253 257 260 259 257 253 249 254 259 253 249 251 246 241 242 245 244 244
232 232 233 233 235 237 236 235 235 234 234 234 235 236 237 237 237 238 239 241 243 245 247 250 251 255 258 258 257 255 252 252 254 253 250 250 243 239 240 244 245 244
Height
1517 1520 1522 1524 1527 1529 1531 1533 1534 1536 1537 1538 1540 1541 1543 1544 1546 1547 1548 1549 1551 1552 1553 1554 1555 1556 1556 1556 1556 1557 1558 1558 1559 1559 1560 1560 1561 1562 1562 1563 1564 1564
1513 1516 1519 1521 1524 1526 1528 1530 1532 1533 1534 1536 1537 1539 1541 1543 1544 1545 1546 1548 1549 1550 1552 1553 1554 1554 1554 1554 1555 1556 1556 1557 1557 1558 1558 1558 1559 1560 1561 1562 1563 1563
1510 1512 1515 1517 1520 1523 1526 1528 1529 1531 1532 1534 1535 1537 1539 1540 1542 1543 1545 1546 1547 1549 1550 1551 1552 1552 1552 1553 1553 1554 1555 1555 1556 1557 1557 1557 1558 1559 1560 1561 1561 1562
1507 1509 1511 1514 1517 1520 1523 1525 1526 1528 1529 1531 1532 1534 1536 1538 1539 1541 1542 1544 1545 1546 1548 1549 1550 1551 1551 1551 1551 1552 1552 1553 1555 1555 1556 1556 1557 1558 1559 1559 1560 1560
1503 1506 1508 1511 1513 1516 1519 1521 1523 1524 1526 1528 1530 1532 1533 1535 1537 1538 1540 1541 1542 1544 1545 1547 1548 1549 1549 1549 1549 1550 1550 1551 1553 1554 1554 1555 1556 1556 1556 1557 1557 1558
1500 1502 1505 1508 1510 1512 1514 1516 1519 1521 1523 1525 1527 1529 1530 1532 1534 1536 1537 1538 1540 1541 1542 1544 1545 1546 1547 1547 1547 1547 1548 1549 1551 1552 1552 1552 1553 1554 1554 1555 1556 1556
1496 1498 1501 1504 1506 1509 1510 1513 1515 1517 1519 1522 1524 1526 1527 1529 1531 1533 1534 1536 1537 1538 1539 1541 1543 1544 1544 1545 1544 1545 1545 1547 1548 1550 1550 1550 1551 1552 1553 1554 1554 1555
1492 1495 1498 1500 1502 1504 1506 1509 1511 1513 1516 1518 1520 1522 1524 1526 1528 1530 1531 1533 1534 1535 1537 1539 1540 1541 1542 1542 1542 1542 1543 1545 1546 1547 1548 1549 1549 1550 1551 1552 1553 1553
1489 1491 1494 1496 1498 1500 1502 1504 1507 1509 1512 1514 1516 1519 1521 1523 1525 1527 1528 1530 1531 1532 1534 1535 1537 1538 1539 1539 1540 1540 1541 1542 1544 1545 1546 1547 1547 1548 1549 1550 1550 1551
1484 1487 1489 1491 1493 1495 1497 1500 1503 1506 1508 1510 1513 1515 1517 1520 1522 1524 1525 1527 1528 1529 1530 1532 1533 1534 1536 1537 1537 1538 1539 1540 1542 1543 1544 1545 1545 1545 1546 1547 1548 1548
1480 1483 1485 1486 1489 1491 1493 1496 1499 1502 1504 1507 1509 1511 1514 1516 1518 1520 1521 1523 1524 1525 1527 1528 1530 1531 1532 1534 1534 1535 1537 1538 1539 1540 1541 1542 1542 1543 1543 1544 1545 1546
1476 1478 1480 1482 1485 1487 1490 1493 1495 1498 1501 1503 1506 1508 1510 1512 1514 1516 1517 1519 1520 1522 1524 1525 1527 1528 1529 1530 1532 1533 1535 1536 1537 1537 1538 1539 1539 1540 1541 1542 1543 1544
1471 1474 1476 1479 1482 1485 1487 1490 1492 1494 1496 1499 1502 1504 1506 1508 1510 1512 1513 1515 1517 1519 1520 1522 1523 1524 1525 1527 1529 1530 1532 1533 1534 1534 1534 1536 1537 1538 1540 1540 1541 1542
1467 1471 1474 1477 1480 1482 1484 1486 1488 1490 1492 1495 1498 1500 1502 1504 1506 1508 1510 1512 1513 1515 1517 1519 1520 1521 1521 1523 1525 1527 1529 1530 1530 1531 1532 1534 1536 1537 1538 1538 1538 1539
1464 1468 1471 1474 1477 1479 1480 1482 1484 1487 1489 1491 1494 1496 1498 1500 1503 1505 1506 1508 1509 1511 1513 1515 1515 1516 1517 1519 1521 1523 1526 1527 1527 1529 1531 1532 1534 1535 1535 1536 1537 1537
1460 1463 1467 1470 1472 1474 1476 1479 1481 1483 1485 1487 1489 1492 1494 1497 1499 1501 1502 1504 1506 1507 1509 1510 1510 1511 1512 1515 1517 1520 1523 1523 1524 1527 1529 1530 1531 1532 1533 1533 1534 1535
1455 1459 1462 1465 1467 1470 1473 1475 1478 1480 1481 1483 1485 1488 1490 1492 1494 1496 1497 1500 1501 1503 1504 1504 1505 1506 1508 1511 1514 1518 1520 1521 1522 1525 1527 1527 1528 1528 1530 1530 1531 1532
1450 1454 1457 1460 1462 1465 1468 1471 1474 1476 1478 1479 1481 1483 1485 1488 1490 1491 1493 1495 1497 1498 1499 1500 1501 1502 1504 1506 1510 1514 1518 1519 1519 1521 1523 1523 1523 1525 1526 1528 1529 1530
1445 1449 1452 1454 1457 1460 1464 1467 1470 1471 1472 1474 1476 1479 1482 1483 1485 1487 1489 1491 1492 1493 1494 1495 1497 1498 1499 1502 1506 1511 1515 1515 1515 1517 1518 1519 1520 1522 1524 1525 1526 1527
1441 1443 1446 1449 1452 1456 1460 1462 1464 1466 1468 1470 1472 1475 1477 1478 1480 1482 1484 1486 1487 1488 1490 1491 1493 1494 1495 1498 1501 1506 1510 1512 1513 1514 1515 1516 1517 1518 1520 1522 1523 1524
1436 1438 1441 1445 1448 1451 1454 1456 1458 1460 1463 1465 1468 1470 1472 1473 1475 1478 1480 1481 1483 1484 1486 1487 1488 1489 1491 1493 1497 1500 1504 1509 1513 1514 1514 1514 1514 1514 1515 1517 1519 1521
1432 1435 1438 1441 1444 1447 1449 1451 1453 1455 1457 1460 1463 1465 1467 1469 1471 1473 1475 1477 1478 1480 1482 1483 1484 1485 1487 1489 1492 1495 1499 1504 1509 1511 1512 1512 1511 1511 1513 1514 1515 1517
1428 1431 1434 1438 1441 1442 1443 1445 1448 1450 1453 1456 1458 1460 1463 1464 1466 1468 1470 1472 1474 1475 1477 1479 1480 1481 1483 1486 1488 1491 1496 1500 1503 1505 1508 1510 1510 1511 1511 1510 1511 1513
1424 1427 1430 1434 1436 1437 1438 1441 1444 1447 1449 1451 1454 1455 1458 1460 1462 1464 1466 1468 1470 1471 1473 1475 1476 1478 1480 1483 1485 1487 1492 1497 1498 1499 1503 1506 1507 1509 1509 1508 1508 1510
1420 1423 1426 1429 1431 1432 1434 1437 1440 1443 1446 1448 1450 1452 1454 1456 1459 1461 1462 1463 1465 1467 1470 1472 1473 1475 1477 1479 1482 1484 1488 1493 1495 1495 1498 1501 1502 1504 1505 1506 1506 1507
1416 1418 1420 1423 1425 1427 1429 1433 1436 1439 1442 1444 1446 1448 1450 1453 1454 1456 1457 1459 1461 1464 1466 1468 1469 1471 1473 1476 1479 1480 1482 1487 1491 1493 1495 1497 1497 1499 1501 1503 1503 1505